owner,sensor,date,latitude,longitude,vertical_datum,wind_speed,wind_to_direction,wind_speed_of_gust,qcFlag 
SCCF RECON,ioos:station:SCCF:16:1,2017-11-01T04:30:00Z,26.4345,-81.9647,10.0,4.2,44.7,-9999.0,'1111122,1111122,1111122' 
SCCF RECON,ioos:station:SCCF:16:1,2017-11-01T05:30:00Z,26.4345,-81.9647,10.0,5.0,64.8,-9999.0,'1111122,1111122,1111122' 
SCCF RECON,ioos:station:SCCF:16:1,2017-11-01T06:30:00Z,26.4345,-81.9647,10.0,4.8,62.1,-9999.0,'1111122,1111122,1111122' 
SCCF RECON,ioos:station:SCCF:16:1,2017-11-01T07:30:00Z,26.4345,-81.9647,10.0,4.4,38.3,-9999.0,'1111122,1111122,1111122' 
SCCF RECON,ioos:station:SCCF:16:1,2017-11-01T08:30:00Z,26.4345,-81.9647,10.0,4.4,29.5,-9999.0,'1111122,1111122,1111122' 
SCCF RECON,ioos:station:SCCF:16:1,2017-11-01T09:30:00Z,26.4345,-81.9647,10.0,5.1,30.7,-9999.0,'1111122,1111122,1111122' 
SCCF RECON,ioos:station:SCCF:16:1,2017-11-01T10:30:00Z,26.4345,-81.9647,10.0,4.0,35.0,-9999.0,'1111122,1111122,1111122' 
SCCF RECON,ioos:station:SCCF:16:1,2017-11-01T11:30:00Z,26.4345,-81.9647,10.0,5.1,34.9,-9999.0,'1111122,1111122,1111122' 
SCCF RECON,ioos:station:SCCF:16:1,2017-11-01T12:30:00Z,26.4345,-81.9647,10.0,4.9,46.8,-9999.0,'1111122,1111122,1111122' 
SCCF RECON,ioos:station:SCCF:16:1,2017-11-01T13:30:00Z,26.4345,-81.9647,10.0,4.2,41.5,-9999.0,'1111122,1111122,1111122' 
SCCF RECON,ioos:station:SCCF:16:1,2017-11-01T14:30:00Z,26.4345,-81.9647,10.0,3.8,60.8,-9999.0,'1111122,1111122,1111122' 
SCCF RECON,ioos:station:SCCF:16:1,2017-11-01T15:30:00Z,26.4345,-81.9647,10.0,4.4,71.2,-9999.0,'1111122,1111122,1111122' 
SCCF RECON,ioos:station:SCCF:16:1,2017-11-01T16:30:00Z,26.4345,-81.9647,10.0,3.7,93.8,-9999.0,'1111122,1111122,1111122' 
SCCF RECON,ioos:station:SCCF:16:1,2017-11-01T17:30:00Z,26.4345,-81.9647,10.0,0.1,178.5,-9999.0,'1111122,1111122,1111122' 
SCCF RECON,ioos:station:SCCF:16:1,2017-11-01T18:30:00Z,26.4345,-81.9647,10.0,0.5,237.1,-9999.0,'1111122,1111122,1111122' 
SCCF RECON,ioos:station:SCCF:16:1,2017-11-01T19:30:00Z,26.4345,-81.9647,10.0,1.9,208.5,-9999.0,'1111122,1111122,1111122' 
SCCF RECON,ioos:station:SCCF:16:1,2017-11-01T20:30:00Z,26.4345,-81.9647,10.0,1.1,217.7,-9999.0,'1111122,1111122,1111122' 
SCCF RECON,ioos:station:SCCF:16:1,2017-11-01T21:30:00Z,26.4345,-81.9647,10.0,2.2,317.5,-9999.0,'1111122,1111122,1111122' 
SCCF RECON,ioos:station:SCCF:16:1,2017-11-01T22:30:00Z,26.4345,-81.9647,10.0,3.1,311.8,-9999.0,'1111122,1111122,1111122' 
SCCF RECON,ioos:station:SCCF:16:1,2017-11-02T04:30:00Z,26.4345,-81.9647,10.0,3.0,85.9,-9999.0,'1111122,1111122,1111122' 
SCCF RECON,ioos:station:SCCF:16:1,2017-11-02T05:30:00Z,26.4345,-81.9647,10.0,3.6,88.9,-9999.0,'1111122,1111122,1111122' 
SCCF RECON,ioos:station:SCCF:16:1,2017-11-02T06:30:00Z,26.4345,-81.9647,10.0,3.2,69.0,-9999.0,'1111122,1111122,1111122' 
SCCF RECON,ioos:station:SCCF:16:1,2017-11-02T07:30:00Z,26.4345,-81.9647,10.0,3.1,70.2,-9999.0,'1111122,1111122,1111122' 
SCCF RECON,ioos:station:SCCF:16:1,2017-11-02T08:30:00Z,26.4345,-81.9647,10.0,3.2,76.2,-9999.0,'1111122,1111122,1111122' 
SCCF RECON,ioos:station:SCCF:16:1,2017-11-02T09:30:00Z,26.4345,-81.9647,10.0,3.0,69.6,-9999.0,'1111122,1111122,1111122' 
SCCF RECON,ioos:station:SCCF:16:1,2017-11-02T10:30:00Z,26.4345,-81.9647,10.0,3.1,59.5,-9999.0,'1111122,1111122,1111122' 
SCCF RECON,ioos:station:SCCF:16:1,2017-11-02T11:30:00Z,26.4345,-81.9647,10.0,3.3,34.2,-9999.0,'1111122,1111122,1111122' 
SCCF RECON,ioos:station:SCCF:16:1,2017-11-02T12:30:00Z,26.4345,-81.9647,10.0,3.3,46.8,-9999.0,'1111122,1111122,1111122' 
SCCF RECON,ioos:station:SCCF:16:1,2017-11-02T13:30:00Z,26.4345,-81.9647,10.0,3.1,45.9,-9999.0,'1111122,1111122,1111122' 
SCCF RECON,ioos:station:SCCF:16:1,2017-11-02T14:30:00Z,26.4345,-81.9647,10.0,2.2,23.7,-9999.0,'1111122,1111122,1111122' 
SCCF RECON,ioos:station:SCCF:16:1,2017-11-02T15:30:00Z,26.4345,-81.9647,10.0,2.4,58.2,-9999.0,'1111122,1111122,1111122' 
SCCF RECON,ioos:station:SCCF:16:1,2017-11-02T16:30:00Z,26.4345,-81.9647,10.0,2.8,80.6,-9999.0,'1111122,1111122,1111122' 
SCCF RECON,ioos:station:SCCF:16:1,2017-11-02T17:30:00Z,26.4345,-81.9647,10.0,0.9,108.5,-9999.0,'1111122,1111122,1111122' 
SCCF RECON,ioos:station:SCCF:16:1,2017-11-02T18:30:00Z,26.4345,-81.9647,10.0,0.9,330.8,-9999.0,'1111122,1111122,1111122' 
SCCF RECON,ioos:station:SCCF:16:1,2017-11-02T19:30:00Z,26.4345,-81.9647,10.0,2.0,28.4,-9999.0,'1111122,1111122,1111122' 
SCCF RECON,ioos:station:SCCF:16:1,2017-11-02T20:30:00Z,26.4345,-81.9647,10.0,3.4,86.0,-9999.0,'1111122,1111122,1111122' 
SCCF RECON,ioos:station:SCCF:16:1,2017-11-02T21:30:00Z,26.4345,-81.9647,10.0,4.0,74.4,-9999.0,'1111122,1111122,1111122' 
SCCF RECON,ioos:station:SCCF:16:1,2017-11-02T22:30:00Z,26.4345,-81.9647,10.0,3.3,71.3,-9999.0,'1111122,1111122,1111122' 
SCCF RECON,ioos:station:SCCF:16:1,2017-11-03T04:30:00Z,26.4345,-81.9647,10.0,2.5,43.7,-9999.0,'1111122,1111122,1111122' 
SCCF RECON,ioos:station:SCCF:16:1,2017-11-03T05:30:00Z,26.4345,-81.9647,10.0,3.2,18.7,-9999.0,'1111122,1111122,1111122' 
SCCF RECON,ioos:station:SCCF:16:1,2017-11-03T06:30:00Z,26.4345,-81.9647,10.0,4.1,13.2,-9999.0,'1111122,1111122,1111122' 
SCCF RECON,ioos:station:SCCF:16:1,2017-11-03T07:30:00Z,26.4345,-81.9647,10.0,4.6,15.8,-9999.0,'1111122,1111122,1111122' 
SCCF RECON,ioos:station:SCCF:16:1,2017-11-03T08:30:00Z,26.4345,-81.9647,10.0,4.1,21.7,-9999.0,'1111122,1111122,1111122' 
SCCF RECON,ioos:station:SCCF:16:1,2017-11-03T09:30:00Z,26.4345,-81.9647,10.0,4.3,14.9,-9999.0,'1111122,1111122,1111122' 
SCCF RECON,ioos:station:SCCF:16:1,2017-11-03T10:30:00Z,26.4345,-81.9647,10.0,4.5,14.4,-9999.0,'1111122,1111122,1111122' 
SCCF RECON,ioos:station:SCCF:16:1,2017-11-03T11:30:00Z,26.4345,-81.9647,10.0,3.9,20.9,-9999.0,'1111122,1111122,1111122' 
SCCF RECON,ioos:station:SCCF:16:1,2017-11-03T12:30:00Z,26.4345,-81.9647,10.0,3.7,35.7,-9999.0,'1111122,1111122,1111122' 
SCCF RECON,ioos:station:SCCF:16:1,2017-11-03T13:30:00Z,26.4345,-81.9647,10.0,3.7,27.5,-9999.0,'1111122,1111122,1111122' 
SCCF RECON,ioos:station:SCCF:16:1,2017-11-03T14:30:00Z,26.4345,-81.9647,10.0,4.0,10.1,-9999.0,'1111122,1111122,1111122' 
SCCF RECON,ioos:station:SCCF:16:1,2017-11-03T15:30:00Z,26.4345,-81.9647,10.0,4.4,15.0,-9999.0,'1111122,1111122,1111122' 
SCCF RECON,ioos:station:SCCF:16:1,2017-11-03T16:30:00Z,26.4345,-81.9647,10.0,5.7,18.8,-9999.0,'1111122,1111122,1111122' 
SCCF RECON,ioos:station:SCCF:16:1,2017-11-03T17:30:00Z,26.4345,-81.9647,10.0,3.8,29.8,-9999.0,'1111122,1111122,1111122' 
SCCF RECON,ioos:station:SCCF:16:1,2017-11-03T18:30:00Z,26.4345,-81.9647,10.0,6.0,26.8,-9999.0,'1111122,1111122,1111122' 
SCCF RECON,ioos:station:SCCF:16:1,2017-11-03T19:30:00Z,26.4345,-81.9647,10.0,4.9,49.4,-9999.0,'1111122,1111122,1111122' 
SCCF RECON,ioos:station:SCCF:16:1,2017-11-03T20:30:00Z,26.4345,-81.9647,10.0,0.7,29.4,-9999.0,'1111122,1111122,1111122' 
SCCF RECON,ioos:station:SCCF:16:1,2017-11-03T21:30:00Z,26.4345,-81.9647,10.0,1.9,32.2,-9999.0,'1111122,1111122,1111122' 
SCCF RECON,ioos:station:SCCF:16:1,2017-11-03T22:30:00Z,26.4345,-81.9647,10.0,1.1,39.3,-9999.0,'1111122,1111122,1111122' 
SCCF RECON,ioos:station:SCCF:16:1,2017-11-04T04:30:00Z,26.4345,-81.9647,10.0,4.4,53.8,-9999.0,'1111122,1111122,1111122' 
SCCF RECON,ioos:station:SCCF:16:1,2017-11-04T05:30:00Z,26.4345,-81.9647,10.0,3.5,47.9,-9999.0,'1111122,1111122,1111122' 
SCCF RECON,ioos:station:SCCF:16:1,2017-11-04T06:30:00Z,26.4345,-81.9647,10.0,2.8,34.6,-9999.0,'1111122,1111122,1111122' 
SCCF RECON,ioos:station:SCCF:16:1,2017-11-04T07:30:00Z,26.4345,-81.9647,10.0,4.1,37.1,-9999.0,'1111122,1111122,1111122' 
SCCF RECON,ioos:station:SCCF:16:1,2017-11-04T08:30:00Z,26.4345,-81.9647,10.0,3.9,4.0,-9999.0,'1111122,1111122,1111122' 
SCCF RECON,ioos:station:SCCF:16:1,2017-11-04T09:30:00Z,26.4345,-81.9647,10.0,4.7,0.2,-9999.0,'1111122,1111122,1111122' 
SCCF RECON,ioos:station:SCCF:16:1,2017-11-04T10:30:00Z,26.4345,-81.9647,10.0,5.5,18.3,-9999.0,'1111122,1111122,1111122' 
SCCF RECON,ioos:station:SCCF:16:1,2017-11-04T11:30:00Z,26.4345,-81.9647,10.0,5.3,12.2,-9999.0,'1111122,1111122,1111122' 
SCCF RECON,ioos:station:SCCF:16:1,2017-11-04T12:30:00Z,26.4345,-81.9647,10.0,4.3,22.5,-9999.0,'1111122,1111122,1111122' 
SCCF RECON,ioos:station:SCCF:16:1,2017-11-04T13:30:00Z,26.4345,-81.9647,10.0,4.6,34.6,-9999.0,'1111122,1111122,1111122' 
SCCF RECON,ioos:station:SCCF:16:1,2017-11-04T14:30:00Z,26.4345,-81.9647,10.0,4.3,25.3,-9999.0,'1111122,1111122,1111122' 
SCCF RECON,ioos:station:SCCF:16:1,2017-11-04T15:30:00Z,26.4345,-81.9647,10.0,4.8,44.7,-9999.0,'1111122,1111122,1111122' 
SCCF RECON,ioos:station:SCCF:16:1,2017-11-04T16:30:00Z,26.4345,-81.9647,10.0,4.2,58.2,-9999.0,'1111122,1111122,1111122' 
SCCF RECON,ioos:station:SCCF:16:1,2017-11-04T17:30:00Z,26.4345,-81.9647,10.0,2.3,8.3,-9999.0,'1111122,1111122,1111122' 
SCCF RECON,ioos:station:SCCF:16:1,2017-11-04T18:30:00Z,26.4345,-81.9647,10.0,4.5,6.7,-9999.0,'1111122,1111122,1111122' 
SCCF RECON,ioos:station:SCCF:16:1,2017-11-04T19:30:00Z,26.4345,-81.9647,10.0,3.8,24.1,-9999.0,'1111122,1111122,1111122' 
SCCF RECON,ioos:station:SCCF:16:1,2017-11-04T20:30:00Z,26.4345,-81.9647,10.0,5.8,18.4,-9999.0,'1111122,1111122,1111122' 
SCCF RECON,ioos:station:SCCF:16:1,2017-11-04T21:30:00Z,26.4345,-81.9647,10.0,4.3,37.1,-9999.0,'1111122,1111122,1111122' 
SCCF RECON,ioos:station:SCCF:16:1,2017-11-04T22:30:00Z,26.4345,-81.9647,10.0,2.7,36.9,-9999.0,'1111122,1111122,1111122' 
SCCF RECON,ioos:station:SCCF:16:1,2017-11-05T04:30:00Z,26.4345,-81.9647,10.0,3.4,42.7,-9999.0,'1111122,1111122,1111122' 
SCCF RECON,ioos:station:SCCF:16:1,2017-11-05T05:30:00Z,26.4345,-81.9647,10.0,2.8,30.1,-9999.0,'1111122,1111122,1111122' 
SCCF RECON,ioos:station:SCCF:16:1,2017-11-05T06:30:00Z,26.4345,-81.9647,10.0,4.6,30.2,-9999.0,'1111122,1111122,1111122' 
SCCF RECON,ioos:station:SCCF:16:1,2017-11-05T07:30:00Z,26.4345,-81.9647,10.0,2.0,1.5,-9999.0,'1111122,1111122,1111122' 
SCCF RECON,ioos:station:SCCF:16:1,2017-11-05T08:30:00Z,26.4345,-81.9647,10.0,3.8,21.9,-9999.0,'1111122,1111122,1111122' 
SCCF RECON,ioos:station:SCCF:16:1,2017-11-05T09:30:00Z,26.4345,-81.9647,10.0,3.0,5.7,-9999.0,'1111122,1111122,1111122' 
SCCF RECON,ioos:station:SCCF:16:1,2017-11-05T10:30:00Z,26.4345,-81.9647,10.0,3.8,15.0,-9999.0,'1111122,1111122,1111122' 
SCCF RECON,ioos:station:SCCF:16:1,2017-11-05T11:30:00Z,26.4345,-81.9647,10.0,4.4,26.4,-9999.0,'1111122,1111122,1111122' 
SCCF RECON,ioos:station:SCCF:16:1,2017-11-05T12:30:00Z,26.4345,-81.9647,10.0,3.9,30.0,-9999.0,'1111122,1111122,1111122' 
SCCF RECON,ioos:station:SCCF:16:1,2017-11-05T13:30:00Z,26.4345,-81.9647,10.0,3.0,353.0,-9999.0,'1111122,1111122,1111122' 
SCCF RECON,ioos:station:SCCF:16:1,2017-11-05T14:30:00Z,26.4345,-81.9647,10.0,3.9,347.9,-9999.0,'1111122,1111122,1111122' 
SCCF RECON,ioos:station:SCCF:16:1,2017-11-05T15:30:00Z,26.4345,-81.9647,10.0,2.2,15.4,-9999.0,'1111122,1111122,1111122' 
SCCF RECON,ioos:station:SCCF:16:1,2017-11-05T16:30:00Z,26.4345,-81.9647,10.0,2.0,1.9,-9999.0,'1111122,1111122,1111122' 
SCCF RECON,ioos:station:SCCF:16:1,2017-11-05T17:30:00Z,26.4345,-81.9647,10.0,2.4,306.2,-9999.0,'1111122,1111122,1111122' 
SCCF RECON,ioos:station:SCCF:16:1,2017-11-05T18:30:00Z,26.4345,-81.9647,10.0,3.1,297.4,-9999.0,'1111122,1111122,1111122' 
SCCF RECON,ioos:station:SCCF:16:1,2017-11-05T19:30:00Z,26.4345,-81.9647,10.0,3.2,300.4,-9999.0,'1111122,1111122,1111122' 
SCCF RECON,ioos:station:SCCF:16:1,2017-11-05T20:30:00Z,26.4345,-81.9647,10.0,7.0,299.0,-9999.0,'1111122,1111122,1111122' 
SCCF RECON,ioos:station:SCCF:16:1,2017-11-05T21:30:00Z,26.4345,-81.9647,10.0,6.7,297.6,-9999.0,'1111122,1111122,1111122' 
SCCF RECON,ioos:station:SCCF:16:1,2017-11-05T22:30:00Z,26.4345,-81.9647,10.0,5.7,311.7,-9999.0,'1111122,1111122,1111122' 
SCCF RECON,ioos:station:SCCF:16:1,2017-11-06T05:30:00Z,26.4345,-81.9647,10.0,2.1,34.4,-9999.0,'1111122,1111122,1111122' 
SCCF RECON,ioos:station:SCCF:16:1,2017-11-06T06:30:00Z,26.4345,-81.9647,10.0,0.8,35.3,-9999.0,'1111122,1111122,1111122' 
SCCF RECON,ioos:station:SCCF:16:1,2017-11-06T07:30:00Z,26.4345,-81.9647,10.0,2.3,27.5,-9999.0,'1111122,1111122,1111122' 
SCCF RECON,ioos:station:SCCF:16:1,2017-11-06T08:30:00Z,26.4345,-81.9647,10.0,2.4,20.1,-9999.0,'1111122,1111122,1111122' 
SCCF RECON,ioos:station:SCCF:16:1,2017-11-06T09:30:00Z,26.4345,-81.9647,10.0,3.5,19.2,-9999.0,'1111122,1111122,1111122' 
SCCF RECON,ioos:station:SCCF:16:1,2017-11-06T10:30:00Z,26.4345,-81.9647,10.0,4.0,18.2,-9999.0,'1111122,1111122,1111122' 
SCCF RECON,ioos:station:SCCF:16:1,2017-11-06T11:30:00Z,26.4345,-81.9647,10.0,3.6,58.1,-9999.0,'1111122,1111122,1111122' 
SCCF RECON,ioos:station:SCCF:16:1,2017-11-06T12:30:00Z,26.4345,-81.9647,10.0,3.5,42.8,-9999.0,'1111122,1111122,1111122' 
SCCF RECON,ioos:station:SCCF:16:1,2017-11-06T13:30:00Z,26.4345,-81.9647,10.0,3.4,47.2,-9999.0,'1111122,1111122,1111122' 
SCCF RECON,ioos:station:SCCF:16:1,2017-11-06T14:30:00Z,26.4345,-81.9647,10.0,2.0,34.2,-9999.0,'1111122,1111122,1111122' 
SCCF RECON,ioos:station:SCCF:16:1,2017-11-06T15:30:00Z,26.4345,-81.9647,10.0,3.3,67.5,-9999.0,'1111122,1111122,1111122' 
SCCF RECON,ioos:station:SCCF:16:1,2017-11-06T16:30:00Z,26.4345,-81.9647,10.0,2.0,350.2,-9999.0,'1111122,1111122,1111122' 
SCCF RECON,ioos:station:SCCF:16:1,2017-11-06T17:30:00Z,26.4345,-81.9647,10.0,2.3,346.6,-9999.0,'1111122,1111122,1111122' 
SCCF RECON,ioos:station:SCCF:16:1,2017-11-06T18:30:00Z,26.4345,-81.9647,10.0,0.7,259.7,-9999.0,'1111122,1111122,1111122' 
SCCF RECON,ioos:station:SCCF:16:1,2017-11-06T19:30:00Z,26.4345,-81.9647,10.0,0.5,22.4,-9999.0,'1111122,1111122,1111122' 
SCCF RECON,ioos:station:SCCF:16:1,2017-11-06T20:30:00Z,26.4345,-81.9647,10.0,1.7,308.5,-9999.0,'1111122,1111122,1111122' 
SCCF RECON,ioos:station:SCCF:16:1,2017-11-06T21:30:00Z,26.4345,-81.9647,10.0,3.4,303.8,-9999.0,'1111122,1111122,1111122' 
SCCF RECON,ioos:station:SCCF:16:1,2017-11-06T22:30:00Z,26.4345,-81.9647,10.0,7.0,323.8,-9999.0,'1111122,1111122,1111122' 
SCCF RECON,ioos:station:SCCF:16:1,2017-11-07T05:30:00Z,26.4345,-81.9647,10.0,1.8,47.2,-9999.0,'1111122,1111122,1111122' 
SCCF RECON,ioos:station:SCCF:16:1,2017-11-07T06:30:00Z,26.4345,-81.9647,10.0,2.8,61.9,-9999.0,'1111122,1111122,1111122' 
SCCF RECON,ioos:station:SCCF:16:1,2017-11-07T07:30:00Z,26.4345,-81.9647,10.0,2.6,34.6,-9999.0,'1111122,1111122,1111122' 
SCCF RECON,ioos:station:SCCF:16:1,2017-11-07T08:30:00Z,26.4345,-81.9647,10.0,2.9,28.5,-9999.0,'1111122,1111122,1111122' 
SCCF RECON,ioos:station:SCCF:16:1,2017-11-07T09:30:00Z,26.4345,-81.9647,10.0,2.7,20.8,-9999.0,'1111122,1111122,1111122' 
SCCF RECON,ioos:station:SCCF:16:1,2017-11-07T10:30:00Z,26.4345,-81.9647,10.0,3.4,41.9,-9999.0,'1111122,1111122,1111122' 
SCCF RECON,ioos:station:SCCF:16:1,2017-11-07T11:30:00Z,26.4345,-81.9647,10.0,3.0,13.9,-9999.0,'1111122,1111122,1111122' 
SCCF RECON,ioos:station:SCCF:16:1,2017-11-07T12:30:00Z,26.4345,-81.9647,10.0,3.7,63.5,-9999.0,'1111122,1111122,1111122' 
SCCF RECON,ioos:station:SCCF:16:1,2017-11-07T13:30:00Z,26.4345,-81.9647,10.0,2.9,64.1,-9999.0,'1111122,1111122,1111122' 
SCCF RECON,ioos:station:SCCF:16:1,2017-11-07T14:30:00Z,26.4345,-81.9647,10.0,0.5,289.3,-9999.0,'1111122,1111122,1111122' 
SCCF RECON,ioos:station:SCCF:16:1,2017-11-07T17:00:00Z,26.4345,-81.9647,10.0,1.9,321.8,-9999.0,'1111122,1111122,1111122' 
SCCF RECON,ioos:station:SCCF:16:1,2017-11-07T17:30:00Z,26.4345,-81.9647,10.0,4.0,351.1,-9999.0,'1111122,1111122,1111122' 
SCCF RECON,ioos:station:SCCF:16:1,2017-11-07T19:00:00Z,26.4345,-81.9647,10.0,2.3,62.7,-9999.0,'1111122,1111122,1111122' 
SCCF RECON,ioos:station:SCCF:16:1,2017-11-07T19:30:00Z,26.4345,-81.9647,10.0,2.3,341.5,-9999.0,'1111122,1111122,1111122' 
SCCF RECON,ioos:station:SCCF:16:1,2017-11-07T20:30:00Z,26.4345,-81.9647,10.0,4.8,344.2,-9999.0,'1111122,1111122,1111122' 
SCCF RECON,ioos:station:SCCF:16:1,2017-11-07T22:00:00Z,26.4345,-81.9647,10.0,5.5,303.0,-9999.0,'1111122,1111122,1111122' 
SCCF RECON,ioos:station:SCCF:16:1,2017-11-07T23:00:00Z,26.4345,-81.9647,10.0,5.9,327.8,-9999.0,'1111122,1111122,1111122' 
SCCF RECON,ioos:station:SCCF:16:1,2017-11-08T06:00:00Z,26.4345,-81.9647,10.0,0.5,216.4,-9999.0,'1111122,1111122,1111122' 
SCCF RECON,ioos:station:SCCF:16:1,2017-11-08T07:00:00Z,26.4345,-81.9647,10.0,2.9,339.2,-9999.0,'1111122,1111122,1111122' 
SCCF RECON,ioos:station:SCCF:16:1,2017-11-08T08:00:00Z,26.4345,-81.9647,10.0,3.0,48.9,-9999.0,'1111122,1111122,1111122' 
SCCF RECON,ioos:station:SCCF:16:1,2017-11-08T09:00:00Z,26.4345,-81.9647,10.0,3.5,5.9,-9999.0,'1111122,1111122,1111122' 
SCCF RECON,ioos:station:SCCF:16:1,2017-11-08T10:00:00Z,26.4345,-81.9647,10.0,2.7,54.2,-9999.0,'1111122,1111122,1111122' 
SCCF RECON,ioos:station:SCCF:16:1,2017-11-08T10:30:00Z,26.4345,-81.9647,10.0,3.6,21.2,-9999.0,'1111122,1111122,1111122' 
SCCF RECON,ioos:station:SCCF:16:1,2017-11-08T11:30:00Z,26.4345,-81.9647,10.0,3.1,51.4,-9999.0,'1111122,1111122,1111122' 
SCCF RECON,ioos:station:SCCF:16:1,2017-11-08T12:30:00Z,26.4345,-81.9647,10.0,3.5,57.8,-9999.0,'1111122,1111122,1111122' 
SCCF RECON,ioos:station:SCCF:16:1,2017-11-08T13:30:00Z,26.4345,-81.9647,10.0,3.5,28.6,-9999.0,'1111122,1111122,1111122' 
SCCF RECON,ioos:station:SCCF:16:1,2017-11-08T14:30:00Z,26.4345,-81.9647,10.0,2.3,50.5,-9999.0,'1111122,1111122,1111122' 
SCCF RECON,ioos:station:SCCF:16:1,2017-11-08T15:30:00Z,26.4345,-81.9647,10.0,3.1,49.4,-9999.0,'1111122,1111122,1111122' 
SCCF RECON,ioos:station:SCCF:16:1,2017-11-08T16:30:00Z,26.4345,-81.9647,10.0,2.3,64.4,-9999.0,'1111122,1111122,1111122' 
SCCF RECON,ioos:station:SCCF:16:1,2017-11-08T17:30:00Z,26.4345,-81.9647,10.0,2.4,245.8,-9999.0,'1111122,1111122,1111122' 
SCCF RECON,ioos:station:SCCF:16:1,2017-11-08T18:30:00Z,26.4345,-81.9647,10.0,1.1,247.5,-9999.0,'1111122,1111122,1111122' 
SCCF RECON,ioos:station:SCCF:16:1,2017-11-08T19:30:00Z,26.4345,-81.9647,10.0,0.7,212.9,-9999.0,'1111122,1111122,1111122' 
SCCF RECON,ioos:station:SCCF:16:1,2017-11-08T20:30:00Z,26.4345,-81.9647,10.0,3.8,254.2,-9999.0,'1111122,1111122,1111122' 
SCCF RECON,ioos:station:SCCF:16:1,2017-11-08T21:30:00Z,26.4345,-81.9647,10.0,2.6,278.0,-9999.0,'1111122,1111122,1111122' 
SCCF RECON,ioos:station:SCCF:16:1,2017-11-08T22:30:00Z,26.4345,-81.9647,10.0,5.3,296.5,-9999.0,'1111122,1111122,1111122' 
SCCF RECON,ioos:station:SCCF:16:1,2017-11-09T05:30:00Z,26.4345,-81.9647,10.0,4.5,110.9,-9999.0,'1111122,1111122,1111122' 
SCCF RECON,ioos:station:SCCF:16:1,2017-11-09T06:30:00Z,26.4345,-81.9647,10.0,3.5,67.2,-9999.0,'1111122,1111122,1111122' 
SCCF RECON,ioos:station:SCCF:16:1,2017-11-09T07:30:00Z,26.4345,-81.9647,10.0,2.3,62.3,-9999.0,'1111122,1111122,1111122' 
SCCF RECON,ioos:station:SCCF:16:1,2017-11-09T08:30:00Z,26.4345,-81.9647,10.0,2.4,45.2,-9999.0,'1111122,1111122,1111122' 
SCCF RECON,ioos:station:SCCF:16:1,2017-11-09T09:30:00Z,26.4345,-81.9647,10.0,3.1,76.9,-9999.0,'1111122,1111122,1111122' 
SCCF RECON,ioos:station:SCCF:16:1,2017-11-09T10:30:00Z,26.4345,-81.9647,10.0,3.2,79.1,-9999.0,'1111122,1111122,1111122' 
SCCF RECON,ioos:station:SCCF:16:1,2017-11-09T11:30:00Z,26.4345,-81.9647,10.0,3.5,53.5,-9999.0,'1111122,1111122,1111122' 
SCCF RECON,ioos:station:SCCF:16:1,2017-11-09T12:30:00Z,26.4345,-81.9647,10.0,2.8,30.4,-9999.0,'1111122,1111122,1111122' 
SCCF RECON,ioos:station:SCCF:16:1,2017-11-09T13:30:00Z,26.4345,-81.9647,10.0,2.6,26.6,-9999.0,'1111122,1111122,1111122' 
SCCF RECON,ioos:station:SCCF:16:1,2017-11-09T14:30:00Z,26.4345,-81.9647,10.0,3.4,57.6,-9999.0,'1111122,1111122,1111122' 
SCCF RECON,ioos:station:SCCF:16:1,2017-11-09T15:30:00Z,26.4345,-81.9647,10.0,2.1,265.4,-9999.0,'1111122,1111122,1111122' 
SCCF RECON,ioos:station:SCCF:16:1,2017-11-09T16:30:00Z,26.4345,-81.9647,10.0,0.3,258.3,-9999.0,'1111122,1111122,1111122' 
SCCF RECON,ioos:station:SCCF:16:1,2017-11-09T17:30:00Z,26.4345,-81.9647,10.0,2.7,288.5,-9999.0,'1111122,1111122,1111122' 
SCCF RECON,ioos:station:SCCF:16:1,2017-11-09T18:30:00Z,26.4345,-81.9647,10.0,2.6,283.7,-9999.0,'1111122,1111122,1111122' 
SCCF RECON,ioos:station:SCCF:16:1,2017-11-09T19:30:00Z,26.4345,-81.9647,10.0,3.5,250.2,-9999.0,'1111122,1111122,1111122' 
SCCF RECON,ioos:station:SCCF:16:1,2017-11-09T20:30:00Z,26.4345,-81.9647,10.0,5.4,295.1,-9999.0,'1111122,1111122,1111122' 
SCCF RECON,ioos:station:SCCF:16:1,2017-11-09T21:30:00Z,26.4345,-81.9647,10.0,5.1,297.4,-9999.0,'1111122,1111122,1111122' 
SCCF RECON,ioos:station:SCCF:16:1,2017-11-09T22:30:00Z,26.4345,-81.9647,10.0,4.9,315.6,-9999.0,'1111122,1111122,1111122' 
SCCF RECON,ioos:station:SCCF:16:1,2017-11-10T05:30:00Z,26.4345,-81.9647,10.0,6.1,0.2,-9999.0,'1111122,1111122,1111122' 
SCCF RECON,ioos:station:SCCF:16:1,2017-11-10T06:30:00Z,26.4345,-81.9647,10.0,2.5,350.0,-9999.0,'1111122,1111122,1111122' 
SCCF RECON,ioos:station:SCCF:16:1,2017-11-10T07:30:00Z,26.4345,-81.9647,10.0,1.6,320.7,-9999.0,'1111122,1111122,1111122' 
SCCF RECON,ioos:station:SCCF:16:1,2017-11-10T08:30:00Z,26.4345,-81.9647,10.0,3.9,24.5,-9999.0,'1111122,1111122,1111122' 
SCCF RECON,ioos:station:SCCF:16:1,2017-11-10T09:30:00Z,26.4345,-81.9647,10.0,5.3,16.3,-9999.0,'1111122,1111122,1111122' 
SCCF RECON,ioos:station:SCCF:16:1,2017-11-10T10:30:00Z,26.4345,-81.9647,10.0,4.8,22.9,-9999.0,'1111122,1111122,1111122' 
SCCF RECON,ioos:station:SCCF:16:1,2017-11-10T11:30:00Z,26.4345,-81.9647,10.0,5.6,29.4,-9999.0,'1111122,1111122,1111122' 
SCCF RECON,ioos:station:SCCF:16:1,2017-11-10T12:30:00Z,26.4345,-81.9647,10.0,4.8,40.3,-9999.0,'1111122,1111122,1111122' 
SCCF RECON,ioos:station:SCCF:16:1,2017-11-10T13:30:00Z,26.4345,-81.9647,10.0,4.1,34.0,-9999.0,'1111122,1111122,1111122' 
SCCF RECON,ioos:station:SCCF:16:1,2017-11-10T14:30:00Z,26.4345,-81.9647,10.0,4.3,39.2,-9999.0,'1111122,1111122,1111122' 
SCCF RECON,ioos:station:SCCF:16:1,2017-11-10T15:30:00Z,26.4345,-81.9647,10.0,3.4,38.1,-9999.0,'1111122,1111122,1111122' 
SCCF RECON,ioos:station:SCCF:16:1,2017-11-10T16:30:00Z,26.4345,-81.9647,10.0,4.5,44.4,-9999.0,'1111122,1111122,1111122' 
SCCF RECON,ioos:station:SCCF:16:1,2017-11-10T17:30:00Z,26.4345,-81.9647,10.0,6.3,37.6,-9999.0,'1111122,1111122,1111122' 
SCCF RECON,ioos:station:SCCF:16:1,2017-11-10T18:30:00Z,26.4345,-81.9647,10.0,5.1,39.8,-9999.0,'1111122,1111122,1111122' 
SCCF RECON,ioos:station:SCCF:16:1,2017-11-10T19:30:00Z,26.4345,-81.9647,10.0,4.3,46.1,-9999.0,'1111122,1111122,1111122' 
SCCF RECON,ioos:station:SCCF:16:1,2017-11-10T20:30:00Z,26.4345,-81.9647,10.0,3.2,62.4,-9999.0,'1111122,1111122,1111122' 
SCCF RECON,ioos:station:SCCF:16:1,2017-11-10T21:30:00Z,26.4345,-81.9647,10.0,5.9,27.8,-9999.0,'1111122,1111122,1111122' 
SCCF RECON,ioos:station:SCCF:16:1,2017-11-10T22:30:00Z,26.4345,-81.9647,10.0,3.9,36.6,-9999.0,'1111122,1111122,1111122' 
SCCF RECON,ioos:station:SCCF:16:1,2017-11-11T05:30:00Z,26.4345,-81.9647,10.0,6.7,31.5,-9999.0,'1111122,1111122,1111122' 
SCCF RECON,ioos:station:SCCF:16:1,2017-11-11T06:30:00Z,26.4345,-81.9647,10.0,7.5,31.1,-9999.0,'1111122,1111122,1111122' 
SCCF RECON,ioos:station:SCCF:16:1,2017-11-11T07:30:00Z,26.4345,-81.9647,10.0,7.5,40.2,-9999.0,'1111122,1111122,1111122' 
SCCF RECON,ioos:station:SCCF:16:1,2017-11-11T08:30:00Z,26.4345,-81.9647,10.0,6.6,34.3,-9999.0,'1111122,1111122,1111122' 
SCCF RECON,ioos:station:SCCF:16:1,2017-11-11T09:30:00Z,26.4345,-81.9647,10.0,5.1,23.1,-9999.0,'1111122,1111122,1111122' 
SCCF RECON,ioos:station:SCCF:16:1,2017-11-11T10:30:00Z,26.4345,-81.9647,10.0,5.4,34.4,-9999.0,'1111122,1111122,1111122' 
SCCF RECON,ioos:station:SCCF:16:1,2017-11-11T11:30:00Z,26.4345,-81.9647,10.0,6.0,35.6,-9999.0,'1111122,1111122,1111122' 
SCCF RECON,ioos:station:SCCF:16:1,2017-11-11T12:30:00Z,26.4345,-81.9647,10.0,5.4,38.8,-9999.0,'1111122,1111122,1111122' 
SCCF RECON,ioos:station:SCCF:16:1,2017-11-11T13:30:00Z,26.4345,-81.9647,10.0,5.9,52.2,-9999.0,'1111122,1111122,1111122' 
SCCF RECON,ioos:station:SCCF:16:1,2017-11-11T14:30:00Z,26.4345,-81.9647,10.0,6.1,74.5,-9999.0,'1111122,1111122,1111122' 
SCCF RECON,ioos:station:SCCF:16:1,2017-11-11T15:30:00Z,26.4345,-81.9647,10.0,7.7,52.3,-9999.0,'1111122,1111122,1111122' 
SCCF RECON,ioos:station:SCCF:16:1,2017-11-11T16:30:00Z,26.4345,-81.9647,10.0,7.2,77.0,-9999.0,'1111122,1111122,1111122' 
SCCF RECON,ioos:station:SCCF:16:1,2017-11-11T17:30:00Z,26.4345,-81.9647,10.0,6.8,82.2,-9999.0,'1111122,1111122,1111122' 